Total_Precipitation_Accumulation
0.03 0.03 0.03 0.06 0.14 0.31 0.49 0.44 0.41 0.41 0.44 0.35 0.32 0.35 0.49 0.65 0.89 1.62 0.99 0.54 0.36 0.26 0.30 0.27 0.34 0.31 0.27 0.29 0.35 0.44 0.56 0.56 0.58 0.56 0.52 0.51 0.53 0.50 0.51 0.56 0.62 0.75 0.90 0.91 0.93 1.04 1.18 1.29 1.36
0.03 0.04 0.05 0.09 0.21 0.44 0.57 0.44 0.46 0.42 0.40 0.38 0.34 0.35 0.41 0.53 0.43 0.52 0.44 0.43 0.36 0.26 0.27 0.24 0.30 0.34 0.29 0.30 0.37 0.48 0.60 0.61 0.66 0.59 0.55 0.55 0.54 0.55 0.58 0.61 0.65 0.81 0.96 1.01 1.04 1.09 1.10 1.14 1.23
0.02 0.03 0.06 0.13 0.27 0.41 0.57 0.46 0.49 0.43 0.39 0.38 0.44 0.48 0.54 0.66 0.59 0.57 0.50 0.46 0.42 0.34 0.29 0.27 0.28 0.31 0.32 0.35 0.41 0.53 0.63 0.66 0.72 0.66 0.64 0.66 0.63 0.59 0.60 0.66 0.70 0.78 0.95 1.01 1.00 0.98 0.96 1.03 1.11
0.02 0.04 0.07 0.19 0.32 0.30 0.46 0.51 0.49 0.49 0.45 0.43 0.47 0.64 0.64 0.62 0.59 0.59 0.55 0.55 0.48 0.42 0.36 0.28 0.32 0.33 0.39 0.43 0.48 0.63 0.66 0.73 0.79 0.77 0.77 0.77 0.77 0.73 0.69 0.76 0.84 0.85 0.92 0.97 0.96 1.00 1.03 1.08 1.15
0.03 0.05 0.10 0.23 0.28 0.25 0.35 0.43 0.56 0.58 0.56 0.51 0.56 0.84 1.06 0.92 0.82 0.76 0.62 0.57 0.60 0.51 0.43 0.34 0.37 0.43 0.49 0.55 0.59 0.75 0.81 0.85 0.90 0.94 0.91 0.87 0.86 0.83 0.80 0.85 0.91 0.94 0.92 0.91 0.97 1.06 1.05 1.05 1.17
0.02 0.06 0.17 0.27 0.26 0.24 0.31 0.42 0.51 0.55 0.48 0.45 0.61 1.05 1.56 1.32 1.05 1.10 0.98 0.71 0.69 0.56 0.48 0.43 0.43 0.56 0.69 0.73 0.73 0.84 0.87 0.96 1.00 1.07 1.04 0.94 0.86 0.79 0.79 0.85 0.90 0.96 1.01 0.95 0.91 0.94 0.97 1.02 1.15
0.03 0.09 0.18 0.26 0.37 0.34 0.36 0.41 0.51 0.47 0.46 0.58 0.83 1.29 1.70 1.53 1.24 1.27 1.22 0.95 0.84 0.69 0.58 0.53 0.51 0.69 0.92 0.96 0.89 0.89 0.87 0.96 1.05 1.19 1.22 1.06 0.92 0.83 0.83 0.87 0.91 0.99 1.00 0.90 0.82 0.84 0.89 0.95 1.04
0.02 0.06 0.15 0.21 0.42 0.43 0.36 0.41 0.47 0.44 0.52 0.74 0.96 1.27 1.58 1.56 1.33 1.19 1.16 1.11 1.07 1.03 0.84 0.73 0.74 0.84 0.95 0.97 1.01 0.96 0.94 1.04 1.15 1.24 1.26 1.16 1.05 0.95 0.95 0.91 0.97 0.99 1.05 1.00 0.96 0.94 0.95 0.95 0.99
0.02 0.07 0.14 0.23 0.38 0.43 0.38 0.39 0.39 0.40 0.49 0.75 0.85 0.90 1.21 1.33 1.26 1.30 1.28 1.19 1.19 1.20 1.27 1.20 1.11 1.11 1.11 1.08 1.09 1.17 1.14 1.17 1.20 1.27 1.24 1.18 1.16 1.24 1.21 1.05 1.09 1.14 1.25 1.29 1.22 1.16 1.13 1.08 1.10
0.04 0.13 0.17 0.19 0.23 0.30 0.36 0.40 0.37 0.42 0.48 0.73 1.04 0.99 0.98 1.17 1.35 1.49 1.54 1.43 1.40 1.44 1.57 1.61 1.60 1.56 1.51 1.43 1.59 1.63 1.44 1.36 1.31 1.43 1.31 1.27 1.54 1.64 1.45 1.52 1.53 1.55 1.55 1.56 1.51 1.40 1.31 1.23 1.17
0.05 0.11 0.17 0.22 0.17 0.22 0.29 0.34 0.33 0.45 0.65 0.72 1.08 1.41 1.27 1.35 1.67 1.97 1.85 1.86 1.91 1.85 1.66 1.61 1.89 2.00 2.06 2.16 2.03 2.01 1.96 1.90 1.82 1.91 1.80 1.81 2.00 1.91 1.91 1.96 1.84 1.74 1.74 1.74 1.84 1.65 1.33 1.24 1.41
0.08 0.11 0.15 0.18 0.13 0.15 0.19 0.30 0.38 0.51 0.83 0.94 1.19 1.48 1.82 1.76 1.96 2.08 2.18 2.22 2.19 2.23 2.04 1.82 1.89 1.97 2.13 2.34 2.34 2.30 2.21 2.13 2.07 2.15 1.99 2.17 2.35 2.42 2.40 2.44 2.20 2.13 2.12 2.24 2.24 2.11 1.78 1.57 1.55
0.10 0.10 0.11 0.15 0.12 0.12 0.20 0.32 0.36 0.46 0.60 0.81 1.07 1.28 1.67 1.73 1.77 2.08 2.40 2.70 2.75 2.59 2.45 2.28 2.07 2.03 2.20 2.51 2.68 2.65 2.68 2.52 2.57 2.69 2.47 2.46 2.49 2.52 2.83 2.81 2.97 2.61 2.57 2.69 2.64 2.43 2.31 2.09 1.90
0.09 0.08 0.08 0.13 0.12 0.13 0.20 0.27 0.35 0.40 0.50 0.61 0.73 0.96 1.28 1.51 1.75 2.24 2.64 2.97 3.33 3.18 2.85 2.59 2.44 2.30 2.31 2.46 2.79 2.91 2.76 2.80 2.86 2.98 2.87 2.83 2.86 2.95 3.27 3.37 3.38 3.17 3.21 3.36 3.39 3.18 2.94 2.66 2.57
0.07 0.07 0.09 0.10 0.13 0.12 0.16 0.30 0.37 0.44 0.48 0.56 0.64 0.84 1.19 1.62 1.87 2.46 2.95 3.19 3.55 3.32 3.21 2.98 2.84 2.83 2.66 2.63 2.93 3.04 2.96 2.92 2.99 3.17 3.24 3.15 3.23 3.52 3.62 3.92 3.86 3.64 3.64 3.68 3.64 3.86 3.81 3.28 2.94
0.09 0.12 0.15 0.13 0.12 0.10 0.14 0.33 0.42 0.46 0.53 0.62 0.73 0.92 1.21 1.58 1.89 2.19 2.56 2.87 3.40 3.48 3.25 3.17 2.85 2.82 3.07 3.13 3.41 3.36 3.43 3.59 3.56 3.60 3.78 3.74 3.78 3.87 3.90 3.92 3.98 3.90 3.90 4.20 4.33 4.28 4.18 3.93 3.53
0.11 0.11 0.13 0.15 0.13 0.11 0.12 0.27 0.45 0.44 0.46 0.62 0.75 1.07 1.48 1.62 1.87 1.95 2.27 2.54 2.89 2.96 3.03 3.15 3.08 3.07 3.14 3.38 3.79 3.93 4.16 4.34 4.50 4.57 4.78 4.67 4.44 4.34 4.40 4.36 4.49 4.35 4.41 4.40 4.26 4.66 4.60 4.45 4.03
0.07 0.09 0.10 0.15 0.13 0.12 0.13 0.22 0.45 0.55 0.57 0.69 0.78 0.96 1.32 1.48 1.91 2.14 2.27 2.29 2.63 2.91 3.06 3.21 3.40 3.62 3.60 3.67 3.97 4.45 4.68 4.83 5.19 5.24 5.24 5.32 5.30 5.13 5.13 5.09 5.09 4.96 4.82 4.70 4.68 4.79 4.58 4.42 4.13
0.05 0.08 0.10 0.11 0.11 0.13 0.20 0.30 0.44 0.59 0.67 0.83 1.02 1.10 1.16 1.38 1.90 2.33 2.44 2.48 2.78 3.06 3.24 3.21 3.44 3.85 4.12 4.51 4.53 4.78 5.29 5.64 5.75 5.81 5.77 5.71 5.64 5.63 5.47 5.31 5.42 5.27 5.02 4.78 4.72 4.72 4.62 4.26 4.20
0.04 0.06 0.09 0.13 0.15 0.16 0.25 0.40 0.48 0.61 0.73 0.94 1.15 1.21 1.19 1.37 1.74 2.19 2.39 2.66 2.91 3.09 3.34 3.46 3.59 4.10 4.59 5.17 5.72 6.12 6.57 6.60 6.71 6.64 6.50 6.16 6.01 5.93 5.75 5.75 5.58 5.41 5.26 4.97 4.75 4.70 4.61 4.28 4.31
0.04 0.06 0.09 0.12 0.17 0.22 0.30 0.54 0.62 0.72 0.86 1.00 1.12 1.13 1.21 1.45 1.80 2.09 2.36 2.63 2.87 3.10 3.34 3.48 3.84 4.51 5.38 5.96 6.46 7.01 7.37 7.08 6.80 6.52 6.40 6.29 6.23 6.16 6.05 6.01 5.73 5.53 5.29 4.96 4.68 4.54 4.45 4.32 4.33
0.06 0.07 0.07 0.10 0.18 0.31 0.35 0.67 0.96 1.06 1.18 1.09 1.13 1.28 1.43 1.59 1.78 2.05 2.33 2.55 2.76 3.11 3.28 3.52 4.17 4.88 5.54 6.16 6.80 7.38 7.66 7.66 7.42 6.85 6.37 5.97 5.69 5.49 5.43 5.44 5.31 5.14 4.83 4.62 4.31 4.20 4.13 4.27 4.09
0.06 0.06 0.07 0.11 0.18 0.31 0.35 0.65 1.21 1.44 1.51 1.43 1.46 1.51 1.53 1.56 1.71 1.92 2.16 2.37 2.46 2.81 3.29 3.65 4.28 4.98 5.63 6.41 7.18 7.61 7.81 7.79 7.42 6.64 5.85 5.30 5.00 4.74 4.55 4.54 4.48 4.33 4.12 3.94 3.90 3.95 3.86 3.78 3.62
0.06 0.08 0.12 0.17 0.26 0.41 0.39 0.63 1.33 1.75 1.86 1.79 1.71 1.70 1.64 1.52 1.54 1.66 1.93 2.10 2.35 2.71 3.13 3.63 3.98 4.61 5.32 5.96 6.57 6.78 6.94 6.88 6.44 6.02 5.52 5.12 4.62 4.18 3.84 3.72 3.65 3.47 3.32 3.32 3.35 3.45 3.43 3.44 3.41
0.08 0.16 0.36 0.52 0.58 0.54 0.41 0.68 1.35 1.67 1.61 1.60 1.60 1.66 1.63 1.44 1.49 1.73 2.01 1.99 2.27 2.59 2.98 3.47 3.90 4.29 4.83 5.41 5.92 6.17 6.35 6.27 5.77 5.32 4.89 4.47 3.97 3.57 3.27 3.07 3.01 2.90 2.84 2.84 3.00 3.12 3.07 3.03 3.07
0.08 0.16 0.42 0.66 0.69 0.70 0.66 1.06 1.58 1.57 1.41 1.31 1.31 1.36 1.50 1.53 1.56 1.66 1.79 1.90 2.23 2.49 2.79 3.20 3.53 3.92 4.18 4.46 4.86 5.12 5.32 5.20 4.86 4.39 3.89 3.59 3.28 2.96 2.75 2.62 2.55 2.49 2.41 2.37 2.56 2.70 2.79 2.78 2.83
0.10 0.15 0.24 0.33 0.41 0.71 1.09 1.42 1.79 1.69 1.54 1.43 1.28 1.29 1.41 1.39 1.46 1.60 1.76 1.89 2.10 2.45 2.91 3.14 3.21 3.42 3.65 3.93 4.08 4.11 4.21 4.11 3.87 3.57 3.24 2.96 2.69 2.41 2.27 2.21 2.21 2.19 2.18 2.22 2.38 2.44 2.40 2.46 2.50
0.11 0.13 0.19 0.33 0.66 0.96 1.25 1.78 2.16 2.22 2.17 2.04 1.62 1.45 1.40 1.43 1.50 1.60 1.72 1.91 1.97 2.04 2.43 2.82 2.91 3.04 3.14 3.27 3.34 3.25 3.35 3.25 3.19 3.00 2.74 2.48 2.31 2.10 2.03 2.00 2.00 2.03 1.99 2.02 2.13 2.24 2.27 2.25 2.22
0.16 0.17 0.22 0.35 0.49 0.93 1.38 2.03 2.23 2.52 2.60 2.48 2.05 1.81 1.78 1.72 1.67 1.66 1.68 1.73 1.86 1.98 2.16 2.41 2.66 2.72 2.81 2.97 2.98 2.86 2.95 2.93 2.93 2.78 2.56 2.42 2.38 2.26 2.09 1.98 2.04 2.03 1.95 1.93 1.95 1.90 1.97 2.06 2.10
0.15 0.20 0.30 0.56 0.62 0.70 1.23 2.23 2.51 2.65 2.55 2.28 2.09 1.91 1.80 1.70 1.58 1.55 1.51 1.49 1.57 1.81 2.06 2.24 2.39 2.42 2.52 2.65 2.75 2.82 2.85 2.77 2.66 2.47 2.34 2.23 2.12 1.99 1.93 1.90 1.96 1.93 1.81 1.81 1.76 1.66 1.72 1.82 1.91